GFSSGP_850_spd_159.txt.gz
Wind_Speed
7 1 4 6 3 2 5 8 7 15 13 6 13 12 8 12 8 4 17 24 19 26 31 28 26 25 24 21 20 19 17 16 15 15 16 18 19 19 18 17 17 16 15 13 11 8 8 8 8
5 7 3 5 3 2 6 13 17 18 17 7 11 8 21 14 23 21 24 22 14 24 30 28 26 25 24 21 20 19 18 16 15 14 15 18 18 18 18 17 15 14 12 11 8 7 6 6 7
6 7 3 4 4 9 5 12 15 17 35 13 4 8 11 21 22 20 18 20 14 27 29 27 26 25 23 22 20 19 18 16 15 14 14 17 17 18 18 15 13 12 11 10 8 6 5 6 7
6 4 6 1 11 9 15 16 19 17 31 15 6 1 11 15 17 21 20 20 16 26 29 27 26 26 24 22 21 20 18 16 15 14 14 15 16 17 16 14 12 11 10 8 6 5 5 5 6
3 6 3 5 10 11 17 24 32 18 21 21 9 4 8 17 24 23 21 19 16 24 29 28 26 25 25 22 21 19 18 17 15 14 14 15 16 16 15 12 10 9 8 7 6 4 4 4 5
4 5 2 8 15 15 14 25 29 20 28 24 8 5 7 17 13 23 18 16 14 20 29 28 28 26 25 23 20 19 19 18 16 15 15 16 17 16 14 12 9 8 8 6 4 4 3 3 4
8 4 6 9 12 13 13 26 13 21 21 26 20 8 15 18 15 19 20 14 12 13 27 30 29 27 25 23 21 20 19 19 18 17 16 16 17 16 13 11 8 8 7 5 4 4 3 4 4
16 3 8 11 11 13 15 27 27 22 20 28 30 6 6 14 21 20 23 20 16 12 17 27 30 30 28 26 23 20 19 18 18 18 17 17 17 16 13 11 9 8 6 5 4 4 4 5 7
20 6 12 11 11 12 25 14 36 30 24 30 15 6 9 13 23 22 22 28 23 21 18 21 29 30 30 28 26 24 21 20 19 19 18 18 17 16 14 12 10 7 6 5 5 5 6 8 12
7 4 10 7 8 12 19 21 20 23 25 25 26 9 10 5 15 20 21 26 32 30 27 25 27 32 31 30 29 27 25 24 22 20 19 18 17 16 15 13 11 9 6 5 5 6 8 10 8
16 13 13 19 28 31 24 25 29 18 20 20 21 30 15 22 15 19 20 23 32 30 31 30 24 34 34 33 30 29 26 25 24 21 20 20 18 17 17 14 11 9 7 6 7 8 8 7 8
12 22 24 26 31 29 18 28 21 24 28 33 32 30 28 22 15 16 23 23 25 39 37 35 29 34 36 32 32 30 28 26 25 23 22 22 20 19 15 12 8 8 7 8 12 8 7 4 7
7 7 20 23 23 21 23 18 21 30 36 39 36 32 32 28 23 17 12 23 31 40 44 40 33 30 39 34 32 32 30 27 24 23 24 23 20 15 13 10 7 9 9 10 7 4 3 7 5
17 23 22 28 27 28 14 14 22 25 33 34 37 35 33 33 29 26 21 15 30 28 48 44 39 34 33 35 30 30 30 28 26 24 25 24 19 14 14 12 9 10 7 5 5 4 3 4 4
20 14 16 17 18 13 24 19 18 29 33 41 34 32 32 34 36 32 31 26 22 15 47 47 43 39 35 34 32 26 29 28 28 25 26 27 21 17 15 13 10 8 4 7 5 10 7 4 3
12 10 8 11 15 25 19 22 17 33 36 35 42 40 31 31 36 39 34 32 31 12 34 49 46 44 41 37 33 28 26 24 24 24 23 29 26 20 18 18 15 13 11 17 11 10 8 7 4
5 12 14 18 14 15 14 24 21 34 37 34 36 37 41 38 35 47 42 37 36 25 27 46 48 48 42 37 31 28 24 24 22 23 21 28 26 23 23 22 21 18 16 16 14 12 9 9 9
10 8 12 17 17 19 19 20 11 22 17 14 24 16 27 34 41 39 42 44 39 36 24 41 48 42 39 36 34 30 27 27 26 27 26 25 26 27 26 22 22 18 20 17 16 14 9 10 9
18 19 17 15 15 22 22 22 17 16 20 15 22 23 21 24 26 26 36 44 45 42 29 40 46 44 33 34 33 37 35 30 30 30 29 28 25 29 29 24 26 23 21 18 17 15 12 10 2
17 20 18 15 13 16 20 25 17 10 17 12 18 27 23 28 34 36 32 35 49 45 39 32 44 47 44 46 42 36 34 36 32 32 30 28 22 29 33 27 27 27 24 21 17 15 10 9 4
18 13 12 15 9 15 14 19 17 14 21 29 31 27 21 34 37 46 47 41 44 55 51 36 41 44 51 51 41 38 43 36 34 34 32 31 23 26 36 26 28 26 24 22 19 17 14 6 4
19 14 14 10 6 8 7 13 20 16 18 20 27 29 33 37 43 39 37 44 37 52 58 43 42 48 49 47 44 50 53 44 44 38 37 31 24 27 33 28 27 25 24 23 21 16 7 3 4
19 11 14 4 6 7 5 1 17 12 20 20 19 25 33 40 44 45 38 39 42 28 47 44 46 49 55 55 48 51 54 46 44 42 39 33 27 31 36 30 29 27 26 22 19 9 7 5 4
19 6 6 6 4 9 13 7 19 8 14 7 14 27 27 21 36 44 45 42 45 39 29 43 49 53 56 56 53 57 56 49 45 45 41 36 33 35 35 32 29 27 24 22 18 13 7 2 4
8 4 5 4 3 10 9 11 15 17 13 14 12 19 29 29 30 27 32 46 44 46 32 37 52 51 55 52 53 55 54 47 44 45 43 41 37 42 37 33 30 28 26 21 18 13 6 6 4
15 3 4 5 4 13 12 12 9 10 7 10 7 17 28 30 29 32 34 42 48 48 31 34 50 54 53 52 48 48 53 45 47 44 45 42 41 46 39 35 31 29 25 21 17 10 7 5 4
14 11 8 9 14 15 11 18 14 6 3 2 11 16 24 32 33 30 35 22 45 49 36 34 50 55 56 52 50 50 54 49 52 46 47 43 42 44 40 35 34 29 24 21 17 10 8 8 4
10 11 5 4 4 14 8 15 8 4 3 6 7 9 19 20 27 28 34 41 29 35 35 35 48 56 54 53 54 59 56 51 52 54 53 46 42 42 39 37 33 29 25 20 13 12 8 4 3
15 11 8 6 4 5 9 6 5 2 3 2 7 15 22 18 29 30 39 38 40 40 34 39 51 59 58 55 56 62 54 50 57 58 50 46 44 42 40 38 34 29 23 17 16 12 8 4 2
13 6 6 4 3 5 4 10 9 12 4 7 8 18 25 20 30 36 31 17 32 26 30 42 52 52 54 57 57 61 57 57 61 58 49 49 46 42 42 38 32 26 22 20 16 11 8 5 2

GFSSGP_850_spd_162.txt.gz
Wind_Speed
6 5 4 2 3 4 4 7 4 5 8 17 24 12 12 20 9 5 8 17 24 33 34 31 29 27 25 24 23 21 20 18 18 19 20 21 22 21 20 19 19 18 16 14 13 12 11 10 10
5 6 2 1 4 0 6 5 12 1 12 32 11 20 6 4 11 7 20 23 21 34 34 33 30 28 26 24 23 22 21 19 18 19 21 22 22 21 20 19 18 16 14 12 11 10 10 10 11
5 7 2 4 4 6 6 6 9 8 19 26 10 19 11 8 12 22 15 25 28 36 34 33 31 28 26 25 24 23 22 20 19 19 20 21 21 21 19 17 16 15 13 11 10 9 10 10 11
5 3 2 3 9 7 7 13 8 13 27 16 25 3 8 13 16 20 17 20 29 34 33 32 31 29 27 26 25 24 22 21 20 20 21 21 21 20 18 16 15 14 12 10 9 8 9 9 10
2 1 0 4 7 6 7 16 20 10 13 22 20 6 8 19 16 20 22 22 24 34 32 32 32 30 28 26 25 24 23 22 20 20 21 21 20 19 17 15 14 12 10 9 8 7 8 8 9
2 0 1 6 8 4 6 23 20 15 19 22 12 5 10 26 24 22 22 24 23 31 33 32 32 29 28 26 25 24 24 22 21 21 21 20 20 18 16 14 13 11 10 8 7 7 7 7 8
4 3 4 4 5 6 5 15 8 8 13 11 23 4 11 32 28 23 24 21 21 28 34 34 32 31 28 26 25 24 24 23 21 21 21 21 19 18 16 14 12 12 10 8 7 7 7 8 8
4 3 3 3 3 7 6 15 18 16 17 23 20 7 2 27 28 27 30 26 22 23 34 35 35 34 32 28 26 24 23 23 22 21 21 20 19 18 16 15 13 12 10 9 8 8 8 9 9
6 1 3 4 2 5 19 9 28 22 18 27 19 19 24 16 34 34 33 31 30 28 32 35 36 36 35 31 29 26 24 23 22 22 21 21 21 19 17 14 13 11 10 8 8 8 10 13 13
4 3 6 5 4 7 16 17 29 21 22 18 25 25 24 13 5 37 37 35 34 33 33 35 37 37 35 34 32 30 28 27 25 24 22 21 21 19 17 15 13 11 10 9 9 10 13 13 12
4 6 6 15 28 29 20 25 32 20 17 13 18 28 26 26 18 9 24 35 34 33 32 32 37 37 37 37 35 33 31 29 27 25 23 22 22 21 19 16 14 12 11 10 11 13 13 10 12
4 8 14 18 27 19 9 22 18 23 23 24 24 28 31 25 28 26 13 19 36 36 34 33 34 36 37 37 37 36 33 31 29 26 25 24 24 23 19 16 13 12 12 12 13 12 10 12 11
4 3 16 18 18 19 19 9 15 29 31 30 27 23 26 30 27 31 27 19 15 37 39 39 37 38 34 40 39 36 34 31 28 26 26 25 24 22 18 16 15 14 15 16 13 12 9 11 8
11 16 18 20 24 18 7 13 15 24 33 38 32 29 30 31 28 28 34 26 9 20 41 43 42 41 39 42 41 39 35 31 28 27 26 26 24 20 18 17 18 18 18 16 12 10 11 9 6
22 9 13 13 15 10 24 11 8 27 29 33 42 39 30 36 35 30 32 34 23 11 18 45 46 46 44 42 43 41 36 31 29 28 27 27 26 21 22 21 22 19 16 15 12 11 10 7 7
7 4 4 7 5 13 7 15 18 33 33 32 39 44 42 36 39 39 36 35 32 25 16 30 46 50 46 45 43 39 36 33 30 28 28 28 27 23 24 22 21 18 15 15 13 15 12 10 10
3 5 7 11 6 7 5 13 8 24 28 25 31 36 47 40 38 35 30 33 39 31 15 22 43 47 47 44 41 37 31 32 31 29 29 30 28 25 22 22 20 17 15 18 16 13 14 15 13
9 5 7 10 10 5 13 18 12 18 23 24 29 33 31 39 28 29 28 26 29 29 17 21 31 46 45 45 40 32 29 28 28 31 30 32 31 26 24 23 21 21 21 20 21 19 17 14 13
12 16 17 11 8 9 13 15 13 20 21 20 22 23 22 26 27 24 22 22 22 17 13 25 29 43 45 45 38 34 33 30 28 28 28 28 32 30 28 28 25 28 25 27 23 23 20 14 10
10 11 13 15 8 5 5 11 16 16 18 23 19 26 31 31 24 28 31 28 28 26 16 23 32 39 48 46 38 34 32 30 28 27 28 27 32 31 31 30 30 30 26 25 22 23 20 14 9
16 9 10 12 8 5 4 13 17 16 10 21 27 31 34 35 32 27 31 36 34 33 31 15 34 37 47 49 46 34 25 27 34 34 31 35 33 33 34 33 32 33 29 28 23 22 18 17 11
18 14 16 18 8 11 4 13 18 16 16 12 19 28 31 34 33 39 41 35 40 35 32 24 27 45 51 50 46 40 51 49 47 39 38 39 39 33 35 35 33 33 29 28 24 20 17 16 9
15 13 17 22 7 4 4 3 13 5 11 16 16 23 25 22 19 27 40 43 40 39 30 32 26 44 52 55 47 49 51 51 43 41 44 44 41 34 37 38 36 32 29 25 24 22 21 12 7
12 9 10 2 3 5 8 8 23 4 7 6 5 11 9 11 11 16 20 27 38 43 42 30 26 35 51 54 54 48 55 46 45 47 47 48 42 37 38 42 36 30 28 26 26 24 17 9 7
18 11 4 4 2 9 5 7 16 12 12 8 12 5 7 13 15 15 19 26 24 26 36 34 28 32 48 57 58 49 54 53 53 53 50 50 47 43 41 44 37 31 29 29 28 22 15 8 7
11 6 3 5 4 12 7 7 8 8 13 21 8 1 10 18 24 21 21 26 27 29 32 33 28 33 43 54 55 57 56 58 61 56 54 54 50 44 43 44 36 31 32 32 27 20 12 9 9
4 6 7 5 11 9 7 10 9 14 13 5 2 9 15 22 26 27 28 30 30 29 33 32 33 34 39 54 59 58 56 57 59 56 53 55 49 45 45 43 36 35 35 32 25 17 13 12 10
8 6 5 2 4 13 6 8 7 9 3 5 3 5 12 14 18 20 28 32 32 30 27 26 34 38 40 51 58 53 52 50 56 57 56 56 53 50 46 42 39 39 35 29 22 17 14 12 10
5 5 4 3 4 4 10 6 8 8 2 5 5 14 15 17 19 23 29 32 32 25 21 25 28 41 40 45 52 50 53 55 55 58 57 60 57 50 48 44 42 40 34 26 21 18 15 12 9
13 4 3 3 5 5 7 9 12 2 7 3 4 15 14 18 22 27 25 32 31 25 15 22 23 24 37 40 48 51 56 54 56 56 57 60 48 50 51 47 43 37 30 26 21 19 16 10 8

GFSSGP_850_spd_165.txt.gz
Wind_Speed
6 6 3 3 3 4 4 6 0 7 5 9 6 8 23 9 7 5 7 18 21 21 35 33 30 28 26 24 22 20 19 19 20 21 21 21 20 19 19 19 19 17 15 14 14 13 12 11 12
5 3 0 2 3 2 5 4 3 5 5 24 22 4 5 7 10 5 16 24 24 21 35 34 32 29 27 25 24 23 21 20 21 22 23 23 22 20 20 20 19 16 14 13 12 11 11 11 12
3 3 2 3 4 6 5 3 2 10 22 17 13 21 8 6 11 6 10 25 26 28 35 34 33 31 29 27 25 24 22 21 22 23 24 24 22 21 20 20 18 16 13 12 11 11 11 11 12
2 3 3 4 9 6 5 1 6 8 14 10 14 11 11 17 7 13 14 21 25 32 35 34 33 32 29 28 27 25 23 22 23 24 24 24 23 22 20 19 17 15 14 12 11 11 11 11 12
3 3 2 2 6 5 6 6 11 5 9 17 20 9 12 11 10 14 20 25 27 34 35 35 34 33 30 29 28 26 24 23 23 24 24 23 23 21 19 18 17 16 14 12 11 11 10 11 11
3 3 2 4 5 5 7 10 8 4 8 15 20 14 10 19 16 16 22 25 29 33 36 36 34 33 31 30 28 26 25 23 23 23 24 23 22 20 19 18 17 15 13 12 11 10 10 11 11
6 4 4 3 3 5 4 11 6 7 8 7 24 4 11 27 12 20 25 28 34 36 37 37 36 34 31 30 28 27 26 24 23 24 24 23 22 20 18 17 16 14 13 11 10 10 10 10 11
2 4 2 3 1 6 4 17 13 7 7 13 16 5 13 38 13 19 23 29 40 38 37 37 38 37 35 32 29 28 27 25 23 24 23 23 22 20 18 16 15 14 12 11 10 10 10 10 10
2 3 2 4 2 6 15 7 17 13 18 18 12 9 17 23 5 16 19 26 36 38 37 38 39 38 36 34 32 29 27 25 23 23 23 23 23 21 19 16 15 13 12 11 11 11 11 11 11
4 3 7 7 4 7 17 15 28 10 20 12 16 25 18 19 18 10 15 21 32 38 40 38 37 38 37 35 33 31 29 28 27 25 25 24 23 21 19 17 16 14 13 11 11 13 15 15 13
2 4 5 10 20 18 8 20 27 11 5 13 18 26 18 15 13 12 12 19 26 31 37 39 40 39 39 38 36 33 32 31 28 26 26 26 25 23 21 19 17 15 13 13 12 15 16 14 12
3 7 2 9 17 13 6 14 10 16 8 20 17 21 24 14 10 10 12 11 15 29 35 40 40 39 39 39 38 37 34 33 32 30 28 27 26 25 22 20 17 15 14 14 15 15 15 14 11
2 3 16 24 18 20 17 10 13 19 24 24 24 21 26 26 20 17 14 17 18 17 30 41 44 43 42 41 41 40 38 36 32 30 28 28 27 26 23 20 18 17 16 15 16 15 14 15 9
7 9 17 13 21 16 8 8 9 20 24 28 28 25 27 30 32 24 22 20 18 18 15 38 44 47 46 46 45 44 41 37 33 30 29 28 27 26 23 21 19 19 18 18 17 13 13 15 10
12 7 9 9 9 5 8 6 5 19 28 27 29 31 30 32 32 36 28 25 20 18 18 15 33 47 49 49 48 46 44 38 34 31 30 28 28 26 23 22 21 21 20 20 17 14 15 13 9
6 3 5 6 6 11 1 8 9 20 17 26 29 33 36 30 29 31 33 27 24 24 21 21 22 37 51 51 50 48 43 38 35 33 31 30 28 26 25 23 24 24 23 21 18 15 14 11 9
5 6 6 10 4 6 2 16 6 23 21 16 22 30 36 37 36 33 28 29 26 20 21 25 24 27 45 52 51 49 41 38 37 33 32 31 30 28 28 26 27 25 22 21 19 17 16 13 11
8 7 8 12 11 15 14 17 12 17 15 19 27 28 31 37 32 27 17 17 11 10 13 17 23 25 33 49 49 45 41 39 35 35 35 33 32 31 30 29 26 25 22 21 21 18 17 14 12
7 9 12 14 15 6 15 15 19 15 15 16 23 29 35 40 41 30 23 22 19 13 7 16 22 26 34 44 48 42 44 39 39 38 35 32 32 32 31 31 28 25 22 21 23 21 19 15 12
6 9 14 18 10 6 13 23 21 8 9 24 29 32 34 36 38 40 32 27 25 20 12 10 20 28 31 35 43 43 40 37 37 36 33 33 33 35 33 31 30 27 24 24 24 23 21 17 12
12 9 14 18 16 5 6 21 12 13 16 26 30 33 34 35 38 39 37 31 28 22 20 12 14 24 35 35 41 41 40 37 34 35 34 35 33 37 34 31 31 28 28 26 28 25 20 20 15
11 11 14 12 10 14 6 16 29 10 7 7 21 28 33 38 37 36 39 35 32 32 27 18 18 20 28 40 43 48 48 41 39 39 33 34 31 35 36 32 31 31 29 28 27 23 20 19 18
5 10 7 11 12 7 2 2 25 3 15 19 15 19 21 23 23 16 21 19 25 25 22 15 19 25 28 34 43 49 50 46 43 37 32 40 36 35 36 35 34 32 31 31 27 24 21 19 20
7 5 8 2 1 6 8 11 28 5 7 6 6 7 6 6 6 9 13 17 16 12 13 12 15 24 28 37 42 52 56 52 49 49 48 46 40 40 41 36 36 34 31 32 28 24 22 21 17
13 5 4 3 1 8 4 7 18 6 12 17 16 14 9 3 9 11 13 16 22 19 16 11 13 23 27 33 42 49 58 58 50 47 43 47 45 45 43 41 38 36 32 31 26 24 24 20 14
11 5 3 5 4 7 8 8 8 10 15 26 19 11 8 6 8 11 14 19 22 27 23 19 13 20 28 34 41 43 57 61 52 50 47 51 48 49 47 43 41 38 33 29 27 27 24 19 14
3 3 5 9 15 10 8 11 9 10 13 7 7 3 5 11 14 15 17 20 25 30 29 23 20 20 26 34 40 40 51 59 54 53 52 50 51 52 47 43 43 38 33 30 29 27 23 17 15
7 3 3 2 5 7 5 7 7 10 8 3 6 9 18 19 21 21 24 25 27 29 31 28 27 24 27 30 38 39 53 58 55 50 52 51 53 50 49 46 45 38 34 32 31 27 21 17 15
4 2 5 4 4 5 8 2 6 6 8 8 8 20 22 21 20 21 25 26 27 29 31 27 24 26 29 34 36 43 54 55 53 54 50 51 52 50 50 49 44 41 37 34 30 25 19 16 15
11 10 4 3 5 5 5 16 17 21 6 7 9 16 23 24 24 25 29 31 30 27 25 25 26 24 30 32 35 43 43 49 49 49 49 52 52 50 53 51 48 41 40 37 30 23 16 17 14

GFSSGP_850_spd_168.txt.gz
Wind_Speed
6 5 2 1 3 5 2 4 2 4 5 4 19 7 6 5 5 4 5 21 18 27 30 29 30 28 25 24 22 19 19 18 19 19 19 19 20 19 19 20 18 16 14 14 14 13 11 11 12
5 2 2 3 4 2 3 3 5 2 11 16 3 5 4 8 17 17 8 23 20 26 29 30 31 29 26 24 22 20 19 19 20 21 20 20 20 19 19 20 18 16 14 14 13 12 11 11 12
2 4 2 4 3 6 4 4 4 7 10 17 7 6 3 3 8 8 9 24 24 30 30 31 31 30 28 26 23 21 20 20 21 21 22 21 21 20 20 20 18 16 14 12 12 11 11 11 12
2 3 5 4 6 4 4 3 5 4 10 17 15 4 15 12 13 13 9 22 23 27 30 31 31 30 28 26 24 23 21 21 22 22 23 23 22 20 20 20 18 16 14 12 11 11 11 12 13
4 4 4 2 4 4 3 4 8 4 5 10 15 13 15 28 29 14 10 19 24 27 31 31 32 31 29 27 25 24 22 22 23 24 24 23 22 21 21 20 18 16 14 13 12 11 11 11 13
4 4 4 3 4 5 5 4 3 4 7 10 15 26 4 34 32 16 8 21 26 30 33 33 32 31 29 28 26 24 22 22 23 24 24 23 22 21 21 20 18 17 15 13 13 12 12 11 13
6 4 4 4 3 5 2 9 5 4 6 5 16 7 12 34 35 14 11 22 25 33 33 33 33 31 29 27 26 24 23 21 22 24 24 23 23 22 20 20 19 17 15 14 13 13 12 11 11
4 4 3 3 3 5 2 12 7 9 5 16 16 5 10 26 29 17 11 19 22 32 33 33 33 32 31 29 27 25 24 22 22 23 23 24 24 22 20 20 19 17 16 14 14 13 13 12 10
4 4 1 2 4 4 7 7 10 12 13 15 15 14 18 18 21 20 11 16 21 31 33 32 33 32 32 31 30 28 26 23 22 22 23 25 25 23 21 19 18 17 15 14 14 13 13 12 10
4 4 8 4 3 3 14 9 18 5 11 4 10 15 10 13 13 15 11 13 18 30 32 33 33 34 32 32 32 31 30 28 27 25 26 26 25 22 20 19 19 17 15 14 14 14 13 12 11
2 4 3 3 9 9 6 14 11 3 2 9 9 17 17 16 11 9 12 10 15 25 31 34 35 35 36 35 35 34 33 32 29 27 27 26 26 24 22 20 20 18 16 15 15 16 15 14 12
2 4 1 7 14 9 4 12 9 11 7 16 15 18 19 16 17 14 12 12 10 13 20 36 36 38 37 38 39 38 37 34 32 30 29 30 29 27 25 22 20 17 16 16 17 19 17 14 13
3 1 7 20 16 19 18 11 14 14 22 20 15 16 16 17 21 20 18 16 14 16 15 24 37 40 41 41 40 40 39 37 35 33 32 32 30 29 26 23 21 18 18 17 18 21 17 16 12
3 6 15 14 20 14 7 9 6 10 15 18 14 13 16 14 18 18 18 21 20 20 20 18 25 39 44 43 43 42 42 40 37 35 33 31 30 29 27 25 23 20 19 18 19 18 18 18 13
6 5 7 3 2 6 1 4 5 15 23 18 21 22 20 22 21 21 23 23 21 20 20 21 18 23 42 45 44 43 43 43 38 36 35 32 31 30 29 26 24 21 20 20 21 18 18 20 15
5 4 4 5 7 6 1 7 4 26 15 24 26 23 27 28 28 25 25 24 20 19 24 22 22 19 25 43 47 47 45 44 40 36 35 33 32 30 29 28 25 23 23 23 22 19 19 18 14
6 6 5 7 3 5 3 15 8 24 27 25 25 29 30 32 31 29 26 22 20 19 22 22 26 25 24 28 43 49 48 46 41 38 36 35 33 31 30 28 25 25 26 25 22 20 19 15 13
7 7 7 10 5 7 10 20 13 24 21 22 27 29 33 37 42 37 31 26 22 16 20 23 27 28 30 29 37 46 49 47 42 40 39 36 35 32 31 29 26 28 27 27 25 22 19 16 14
4 5 11 11 10 6 16 18 21 16 17 17 28 31 35 39 41 39 31 26 26 18 16 18 27 29 33 35 33 41 50 50 45 43 40 38 35 33 32 30 28 29 28 26 24 22 20 20 16
6 8 9 15 8 4 11 24 26 11 11 23 24 27 30 35 37 35 30 23 27 27 19 21 21 28 32 35 32 33 42 50 47 45 41 38 37 35 35 32 33 32 28 27 25 26 24 21 19
4 7 13 16 13 6 6 19 19 4 15 21 25 27 27 31 36 36 33 30 27 30 24 20 19 21 26 33 38 40 39 44 47 47 42 43 40 36 37 35 35 33 30 27 24 26 25 21 21
6 5 6 11 7 5 4 10 33 7 6 4 15 24 29 26 27 29 27 26 30 29 24 22 19 23 24 31 38 42 42 45 50 50 47 45 43 39 38 38 35 34 32 29 25 25 25 23 21
6 6 8 7 14 7 6 5 4 11 11 12 8 15 16 21 15 16 17 16 10 13 14 16 18 19 24 30 39 40 42 41 45 50 45 45 39 38 37 38 36 34 33 29 28 28 27 25 20
5 5 12 4 1 7 14 12 4 5 6 5 5 13 17 15 11 12 10 6 4 4 4 11 19 24 26 23 32 42 40 40 50 48 46 42 41 41 40 37 37 33 33 32 28 27 25 24 20
8 5 4 5 2 6 5 5 16 10 7 7 11 25 27 14 9 8 9 8 8 7 5 5 10 22 27 31 29 34 40 40 46 49 48 46 47 44 37 40 39 33 33 31 29 28 26 24 21
6 5 3 5 4 6 10 7 6 7 12 25 21 21 15 6 8 12 13 13 13 12 9 6 9 11 21 29 34 36 37 44 44 51 49 48 45 42 41 41 39 35 36 32 32 29 26 24 21
1 4 4 4 9 7 5 6 8 17 17 8 8 8 13 15 15 17 19 19 19 18 15 12 9 14 17 25 36 40 42 45 45 50 52 51 44 39 46 47 42 42 40 37 33 30 26 24 22
7 3 3 2 5 7 5 6 8 7 5 5 7 9 18 23 24 23 22 22 23 22 20 18 15 17 21 23 31 38 42 42 48 50 53 54 46 40 43 44 44 44 39 35 33 30 27 27 22
3 3 3 3 4 4 8 5 6 6 4 3 5 12 18 26 29 33 31 29 29 29 27 24 22 21 22 28 30 35 40 45 44 48 51 52 47 43 40 41 44 44 37 37 33 29 29 24 19
10 10 9 5 5 5 6 18 13 11 2 9 16 22 26 30 34 36 33 34 33 31 32 30 28 26 26 28 31 36 38 40 45 44 47 48 45 42 43 41 42 46 39 40 38 40 29 22 17

GFSSGP_850_spd_174.txt.gz
Wind_Speed
5 4 3 4 7 5 4 6 3 1 0 8 12 5 9 2 10 5 13 6 4 16 21 26 24 22 20 20 19 18 16 16 16 14 14 16 16 19 19 18 17 16 15 14 13 12 11 11 13
2 1 2 5 8 9 6 6 8 3 7 11 8 7 2 14 13 7 9 8 9 18 21 27 25 23 21 20 19 18 17 16 16 16 16 16 17 19 19 18 16 15 14 13 13 12 11 13 14
0 4 7 4 9 11 8 5 5 4 8 9 6 5 6 8 13 11 15 4 10 18 22 25 26 24 22 21 20 18 17 17 17 18 17 18 17 18 19 18 16 14 13 13 12 11 12 13 15
1 3 6 9 15 4 6 4 1 3 4 3 8 3 5 10 11 15 10 2 13 16 20 25 27 25 23 21 20 18 17 17 18 19 18 18 18 18 20 18 16 14 13 12 12 11 11 13 15
2 5 9 13 14 2 4 2 3 5 3 6 8 3 2 5 12 14 8 3 11 15 19 24 28 26 23 21 20 18 17 17 18 19 19 19 19 19 20 19 16 14 12 11 11 11 11 13 15
7 5 9 15 14 5 6 3 5 4 4 6 6 10 2 6 12 13 7 2 9 15 18 21 28 27 24 22 20 19 17 17 18 20 19 19 19 19 20 19 16 14 12 11 10 10 11 12 14
11 7 13 14 8 8 4 3 2 5 8 4 10 8 3 9 11 10 8 1 9 14 17 18 28 27 25 23 21 19 18 17 18 19 20 20 20 20 20 19 17 15 13 12 11 11 11 12 13
4 4 9 10 11 11 5 4 4 8 8 9 3 2 5 13 12 8 7 1 5 13 17 17 20 26 26 25 23 20 18 18 18 19 20 21 21 21 21 20 18 16 14 13 12 11 11 11 12
2 6 11 13 9 3 3 6 4 8 14 9 10 11 9 9 11 8 6 4 4 11 15 18 20 21 21 19 25 23 21 19 18 19 21 21 21 21 22 21 20 17 16 14 13 13 12 11 11
7 8 8 6 4 7 6 9 12 11 13 14 12 10 10 11 11 8 6 4 3 9 15 18 20 21 21 20 21 25 24 23 22 22 23 23 19 19 17 19 20 19 18 16 15 14 13 12 9
1 8 4 5 3 7 12 13 10 14 16 14 13 14 14 15 12 11 9 7 6 6 12 18 20 22 22 22 20 21 19 19 21 22 24 22 18 17 18 16 21 20 19 17 16 16 14 12 11
8 2 5 3 9 13 14 16 16 18 21 19 18 19 18 17 14 13 12 10 9 7 9 15 21 22 24 23 22 21 22 22 21 22 24 22 20 18 19 16 16 17 16 14 14 13 12 13 13
8 3 6 10 14 17 18 19 20 21 19 21 19 19 19 17 15 14 12 11 10 9 9 13 17 22 24 27 24 24 25 25 23 23 25 23 22 21 19 18 17 16 16 16 15 14 14 14 13
1 9 13 14 13 11 13 17 14 13 11 11 13 15 16 17 18 18 16 15 13 11 10 12 17 21 22 26 27 26 26 26 25 24 24 28 23 22 21 20 19 17 17 16 15 15 14 14 13
7 12 10 9 6 10 8 17 21 18 16 18 17 19 19 21 21 22 20 19 17 15 13 14 21 21 24 26 28 28 27 26 27 27 28 30 29 26 25 24 20 18 17 18 17 16 16 15 14
10 7 7 10 10 8 5 17 14 8 13 22 22 25 25 25 26 26 26 25 22 19 18 17 16 20 25 26 26 28 28 27 27 27 27 32 31 29 27 23 22 20 19 18 16 16 16 16 15
8 7 11 8 11 8 12 19 14 15 22 25 29 29 29 30 29 29 28 28 27 25 23 24 22 23 24 26 26 28 30 31 29 28 28 30 33 32 29 23 22 25 22 19 17 17 17 18 16
11 14 12 14 8 17 20 24 19 19 21 26 28 29 31 33 33 30 29 28 27 26 26 30 26 22 25 26 27 29 31 34 29 30 29 29 33 36 35 25 23 26 25 20 19 18 18 17 17
12 15 16 16 13 15 21 26 23 23 24 25 28 29 31 31 30 26 27 26 26 25 25 30 30 23 20 26 30 31 34 36 32 30 31 31 33 34 33 31 30 29 24 23 25 21 19 18 17
14 16 17 15 10 16 21 31 26 20 14 18 21 25 26 23 22 20 20 21 23 24 23 22 24 28 23 23 28 31 31 35 31 29 32 31 29 35 35 33 30 30 26 29 27 26 22 21 20
14 16 17 20 18 17 15 21 3 14 11 12 10 12 15 17 16 17 17 17 20 21 22 23 22 20 25 21 23 24 28 30 29 36 36 36 34 31 33 32 31 32 30 28 32 29 27 23 19
17 10 12 17 14 12 12 13 18 8 8 7 10 12 14 14 11 12 11 12 11 12 16 20 21 23 22 21 22 26 26 30 30 29 36 36 34 33 30 31 33 34 34 31 30 30 28 30 23
11 10 14 17 18 20 18 10 6 7 6 6 8 9 3 3 7 9 9 10 9 8 8 10 14 20 22 18 21 23 25 24 22 27 33 33 33 36 33 30 32 35 37 31 30 32 33 31 28
12 15 19 21 14 11 14 12 10 4 7 10 14 12 14 15 11 10 10 10 9 9 8 8 9 10 14 18 19 23 23 23 23 26 29 31 32 32 39 35 31 36 38 39 38 30 34 31 25
6 13 7 5 8 9 6 10 16 17 9 12 11 14 12 12 12 10 10 11 11 10 11 10 10 10 9 10 17 20 23 21 23 24 26 26 28 30 40 44 43 36 39 34 35 35 30 31 28
15 8 6 7 9 15 21 9 2 3 11 12 10 10 9 6 7 8 8 11 12 14 14 14 13 13 12 10 10 18 21 21 22 22 26 25 28 26 35 41 40 40 35 37 31 32 32 28 28
4 7 8 12 18 16 11 15 16 16 7 10 9 8 11 11 11 12 13 15 16 18 18 19 18 16 15 14 11 13 15 24 21 21 22 28 24 23 29 34 39 36 32 30 31 29 29 31 32
13 7 4 4 5 13 12 19 11 11 14 14 14 17 18 19 23 23 22 24 24 25 25 23 23 22 18 16 15 13 12 14 23 27 23 24 23 25 30 32 31 34 32 29 30 32 32 33 31
5 8 7 6 8 7 12 8 18 22 16 15 14 24 28 32 35 37 38 33 31 30 29 28 27 25 22 19 16 17 14 15 14 21 29 25 24 23 27 29 31 31 30 31 35 37 36 33 32
16 17 14 6 10 7 10 20 8 1 12 19 24 26 31 34 36 37 38 39 36 33 31 30 27 26 23 21 19 17 18 16 15 18 22 29 25 26 24 26 25 33 34 32 36 38 37 35 32